Location: St. Louis
(38.6270°N, 90.1994°W)
Time: 20:30:22
(UTC-06:00)

Vanguard 3 - Pass Details

Date: 08 December 2021
Orbit: 508 x 3260 km, 33.3° (Epoch: 19 January)

Event Time Altitude Azimuth Distance (km) Brightness Sun altitude
Exits shadow 06:09:40 - 272° (W) 6,330 11.1 -10.9°
Reaches altitude 10° 06:10:18 10° 272° (W) 6,201 11.0 -10.8°
Maximum altitude 06:29:49 67° 196° (SSW) 2,967 10.0 -7.2°
Drops below altitude 10° 06:43:14 10° 117° (ESE) 4,462 12.9 -4.8°
Sets 06:46:06 0° 115° (ESE) 5,152 14.5 -4.3°
